Change the Weather History Date:

Wednesday, February 27, 2013

  Actual Average Record
Temperature  
Mean Temperature 34 °F -  
Max Temperature 37 °F - 56 °F (1957)
Min Temperature 30 °F - -19 °F (1963)
Degree Days  
Heating Degree Days 31    
Month to date heating degree days 1122  
Since 1 July heating degree days 4847  
Cooling Degree Days 0    
Month to date cooling degree days 0  
Year to date cooling degree days 0  
Moisture  
Dew Point 29 °F    
Average Humidity 81    
Maximum Humidity 92    
Minimum Humidity 69    
Precipitation  
Precipitation 0.25 in - 1.46 in (1997)
Month to date precipitation 0.51  
Year to date precipitation 1.75  
Sea Level Pressure  
Sea Level Pressure 29.79 in    
Wind  
Wind Speed 14 mph (SE)    
Max Wind Speed 25 mph    
Max Gust Speed 37 mph    
Visibility 8 miles    
Events      
T = Trace of Precipitation, MM = Missing Value Source: NWS Daily Summary

Daily Weather History Graph

Daily Weather History Graph

Search for Another Location

Airport or City:

Trip Planner

Search our weather history database for the weather conditions in past years. The results will help you decide how hot, cold, wet, or windy it might be!

Date:

Astronomy

Feb. 27, 2013 Rise Set
Actual Time 6:31 AM EST 5:38 PM EST
Civil Twilight 6:02 AM EST 6:07 PM EST
Nautical Twilight 5:29 AM EST 6:40 PM EST
Astronomical Twilight 4:56 AM EST 7:13 PM EST
Moon 8:02 PM EST (2/27) 7:00 AM EST (2/27)
Length of Visible Light 12h 04m
Length of Day
11h 07m
Waning Gibbous, 96% of the Moon is Illuminated
Feb 27
Waning Gibbous
Mar 4
Last Quarter
Mar 11
New
Mar 19
First Quarter
Mar 27
Full

Hourly Weather History & Observations

Time (EST) Temp. Windchill Dew Point Humidity Pressure Visibility Wind Dir Wind Speed Gust Speed Precip Events Conditions
12:15 AM 33.8 °F 21.0 °F 24.8 °F 70% 30.07 in 10.0 mi ESE 25.3 mph 31.1 mph N/A   Clear
12:35 AM 33.8 °F 22.2 °F 24.8 °F 70% 30.05 in 10.0 mi ESE 20.7 mph 28.8 mph N/A   Clear
12:55 AM 33.8 °F 22.2 °F 24.8 °F 70% 30.06 in 10.0 mi ESE 20.7 mph 36.8 mph N/A   Clear
1:15 AM 33.8 °F 21.0 °F 24.8 °F 70% 30.05 in 10.0 mi ESE 25.3 mph 29.9 mph N/A   Clear
1:35 AM 33.8 °F 23.2 °F 24.8 °F 70% 30.03 in 10.0 mi ESE 17.3 mph 32.2 mph N/A   Clear
1:55 AM 33.8 °F 21.0 °F 24.8 °F 70% 30.03 in 10.0 mi ESE 25.3 mph 33.4 mph N/A   Partly Cloudy
2:15 AM 33.8 °F 23.2 °F 24.8 °F 70% 30.04 in 10.0 mi SE 17.3 mph 31.1 mph N/A   Mostly Cloudy
2:35 AM 33.8 °F 24.8 °F 24.8 °F 70% 30.06 in 10.0 mi SE 12.7 mph 28.8 mph N/A   Overcast
2:55 AM 33.8 °F 25.3 °F 24.8 °F 70% 30.06 in 10.0 mi SSE 11.5 mph 21.9 mph N/A   Overcast
3:15 AM 33.8 °F 26.4 °F 24.8 °F 70% 30.05 in 9.0 mi SSE 9.2 mph 23.0 mph N/A   Overcast
3:35 AM 32.0 °F 23.6 °F 26.6 °F 80% 30.03 in 6.0 mi SE 10.4 mph 16.1 mph N/A   Overcast
3:55 AM 32.0 °F 24.8 °F 26.6 °F 80% 30.01 in 2.5 mi SE 8.1 mph 19.6 mph N/A   Overcast
4:35 AM 32.0 °F 24.8 °F 28.4 °F 87% 29.98 in 3.0 mi SE 8.1 mph 17.3 mph N/A   Overcast
4:55 AM 30.2 °F 20.2 °F 28.4 °F 93% 29.97 in 1.8 mi SE 12.7 mph 17.3 mph N/A   Overcast
5:15 AM 30.2 °F 21.9 °F 28.4 °F 93% 29.95 in 3.0 mi ESE 9.2 mph 18.4 mph N/A   Overcast
5:35 AM 30.2 °F 19.8 °F 26.6 °F 86% 29.93 in 4.0 mi SE 13.8 mph 21.9 mph 0.01 in   Overcast
5:55 AM 32.0 °F 21.2 °F 26.6 °F 80% 29.93 in 10.0 mi ESE 16.1 mph 20.7 mph 0.01 in   Overcast
6:15 AM 32.0 °F 23.0 °F 28.4 °F 87% 29.92 in 5.0 mi SE 11.5 mph 20.7 mph N/A   Overcast
6:35 AM 32.0 °F 24.2 °F 28.4 °F 87% 29.90 in 3.0 mi SE 9.2 mph 18.4 mph N/A   Overcast
6:55 AM 32.0 °F 23.0 °F 28.4 °F 87% 29.88 in 3.0 mi ESE 11.5 mph 19.6 mph N/A   Overcast
7:15 AM 33.8 °F 24.3 °F 28.4 °F 81% 29.87 in 7.0 mi ESE 13.8 mph 26.5 mph N/A   Overcast
7:55 AM 35.6 °F 32.8 °F 28.4 °F 75% 29.86 in 10.0 mi South 3.5 mph - N/A   Overcast
8:15 AM 35.6 °F 25.9 °F 28.4 °F 75% 29.85 in 10.0 mi ESE 16.1 mph 26.5 mph N/A   Overcast
8:35 AM 35.6 °F 26.2 °F 28.4 °F 75% 29.83 in 10.0 mi ESE 15.0 mph 27.6 mph N/A   Overcast
8:55 AM 33.8 °F 25.3 °F 30.2 °F 87% 29.82 in 6.0 mi ESE 11.5 mph 25.3 mph N/A   Overcast
9:16 AM 33.8 °F 24.3 °F 30.2 °F 87% 29.81 in 10.0 mi ESE 13.8 mph 21.9 mph N/A   Overcast
9:35 AM 35.6 °F 24.8 °F 30.2 °F 81% 29.79 in 10.0 mi ESE 19.6 mph 36.8 mph N/A   Overcast
10:15 AM 35.6 °F 27.5 °F 30.2 °F 81% 29.79 in 10.0 mi SE 11.5 mph 23.0 mph N/A   Overcast
10:35 AM 35.6 °F 27.5 °F 30.2 °F 81% 29.78 in 9.0 mi ESE 11.5 mph 19.6 mph 0.01 in   Overcast
10:55 AM 35.6 °F 25.9 °F 30.2 °F 81% 29.78 in 5.0 mi ESE 16.1 mph 24.2 mph 0.02 in   Overcast
11:15 AM 35.6 °F 26.2 °F 32.0 °F 87% 29.77 in 5.0 mi ESE 15.0 mph 24.2 mph 0.02 in   Overcast
11:35 AM 35.6 °F 25.5 °F 30.2 °F 81% 29.75 in 5.0 mi ESE 17.3 mph 27.6 mph 0.03 in   Overcast
11:55 AM 35.6 °F 27.1 °F 32.0 °F 87% 29.74 in 9.0 mi ESE 12.7 mph 27.6 mph 0.04 in   Overcast
12:15 PM 37.4 °F 29.3 °F 30.2 °F 75% 29.72 in 10.0 mi ESE 12.7 mph 29.9 mph 0.01 in   Overcast
12:35 PM 37.4 °F 30.3 °F 32.0 °F 81% 29.72 in 10.0 mi ESE 10.4 mph 18.4 mph 0.01 in   Overcast
12:55 PM 37.4 °F 29.8 °F 32.0 °F 81% 29.70 in 10.0 mi ESE 11.5 mph 19.6 mph 0.02 in   Overcast
1:15 PM 37.4 °F 27.8 °F 30.2 °F 75% 29.68 in 10.0 mi ESE 17.3 mph 27.6 mph N/A   Overcast
1:35 PM 35.6 °F 29.2 °F 32.0 °F 87% 29.70 in 10.0 mi SE 8.1 mph 25.3 mph 0.01 in   Overcast
1:55 PM 35.6 °F 25.5 °F 32.0 °F 87% 29.68 in 5.0 mi ESE 17.3 mph 21.9 mph 0.05 in   Overcast
2:15 PM 35.6 °F 24.8 °F 32.0 °F 87% 29.68 in 4.0 mi ESE 19.6 mph 26.5 mph 0.03 in   Overcast
2:55 PM 35.6 °F 25.9 °F 32.0 °F 87% 29.66 in 10.0 mi ESE 16.1 mph 24.2 mph 0.04 in   Overcast
3:15 PM 35.6 °F 24.8 °F 32.0 °F 87% 29.65 in 8.0 mi ESE 19.6 mph 32.2 mph 0.02 in   Overcast
3:35 PM 35.6 °F 25.9 °F 30.2 °F 81% 29.64 in 9.0 mi ESE 16.1 mph 29.9 mph 0.02 in   Overcast
3:55 PM 35.6 °F 24.5 °F 30.2 °F 81% 29.64 in 10.0 mi ESE 20.7 mph 31.1 mph 0.03 in   Overcast
4:35 PM 33.8 °F 24.8 °F 30.2 °F 87% 29.64 in 9.0 mi SSE 12.7 mph 21.9 mph 0.01 in   Overcast
4:55 PM 33.8 °F 23.9 °F 30.2 °F 87% 29.64 in 7.0 mi ESE 15.0 mph 23.0 mph 0.01 in   Overcast
5:15 PM 33.8 °F 22.8 °F 30.2 °F 87% 29.63 in 4.0 mi ESE 18.4 mph 32.2 mph 0.02 in   Overcast
5:35 PM 33.8 °F 22.8 °F 30.2 °F 87% 29.63 in 5.0 mi ESE 18.4 mph 25.3 mph 0.03 in   Overcast
5:55 PM 33.8 °F 27.0 °F 30.2 °F 87% 29.64 in 3.0 mi SSE 8.1 mph - 0.03 in   Overcast
6:15 PM 33.8 °F 28.6 °F 30.2 °F 87% 29.64 in 4.0 mi SSW 5.8 mph - 0.01 in   Overcast
6:35 PM 33.8 °F 25.3 °F 30.2 °F 87% 29.65 in 6.0 mi SSE 11.5 mph 18.4 mph 0.01 in   Overcast
7:15 PM 33.8 °F 24.3 °F 30.2 °F 87% 29.62 in 8.0 mi ESE 13.8 mph 24.2 mph N/A   Mostly Cloudy
7:35 PM 33.8 °F 23.9 °F 30.2 °F 87% 29.60 in 4.0 mi ESE 15.0 mph 31.1 mph N/A   Overcast
7:55 PM 33.8 °F 23.5 °F 30.2 °F 87% 29.61 in 3.0 mi ESE 16.1 mph 25.3 mph N/A   Overcast
8:15 PM 33.8 °F 25.8 °F 28.4 °F 81% 29.62 in 5.0 mi SE 10.4 mph 20.7 mph N/A   Overcast
8:35 PM 33.8 °F 23.5 °F 28.4 °F 81% 29.62 in 10.0 mi SE 16.1 mph 23.0 mph N/A   Overcast
9:15 PM 32.0 °F 20.1 °F 28.4 °F 87% 29.61 in 7.0 mi ESE 19.6 mph 26.5 mph N/A   Overcast
9:55 PM 32.0 °F 24.8 °F 28.4 °F 87% 29.61 in 10.0 mi SSE 8.1 mph 19.6 mph N/A   Overcast
10:15 PM 32.0 °F 22.5 °F 28.4 °F 87% 29.61 in 10.0 mi SE 12.7 mph - N/A   Overcast
10:35 PM 33.8 °F 25.8 °F 26.6 °F 75% 29.61 in 10.0 mi SSE 10.4 mph 20.7 mph N/A   Overcast
10:55 PM 33.8 °F 27.0 °F 26.6 °F 75% 29.61 in 10.0 mi SSE 8.1 mph 21.9 mph N/A   Overcast
11:15 PM 32.0 °F 23.0 °F 28.4 °F 87% 29.61 in 10.0 mi SE 11.5 mph 16.1 mph N/A   Overcast
11:35 PM 32.0 °F 26.4 °F 28.4 °F 87% 29.61 in 10.0 mi SSW 5.8 mph 16.1 mph N/A   Overcast